VA7NEZ Weather Reports


Display with metric or nautical units.
time (UTC)temp
F
wind
direction
speed
MPH
gust
MPH
rain 1hr
in
rain 24hr
in
rain mn
in
humidity
%
barometer
mb
20260506131458 32 0 0.0 0.0 0.00 0.00 0.00 100 1013.2
20260506130652 48 0 0.0 0.0 0.00 0.00 0.00 70 1013.1
20260506125657 48 0 0.0 0.0 0.00 0.00 0.00 68 1013.0
20260506124712 48 0 0.0 0.0 0.00 0.00 0.00 68 1013.0
20260506122057 48 0 0.0 0.0 0.00 0.00 0.00 66 1012.9
20260506120251 48 0 0.0 0.0 0.00 0.00 0.00 66 1012.7
20260506115437 32 0 0.0 0.0 0.00 0.00 0.00 100 1012.6
20260506114617 49 0 0.0 0.0 0.00 0.00 0.00 63 1012.5
20260506113712 49 0 0.0 0.0 0.00 0.00 0.00 63 1012.5
20260506112840 49 0 0.0 0.0 0.00 0.00 0.00 63 1012.6
20260506112032 32 0 0.0 0.0 0.00 0.00 0.00 100 1012.3
20260506111037 49 0 0.0 0.0 0.00 0.00 0.00 65 1012.3
20260506110123 50 0 0.0 0.0 0.00 0.00 0.00 64 1012.2
20260506105153 50 0 0.0 0.0 0.00 0.00 0.00 62 1012.0
20260506103317 50 0 0.0 0.0 0.00 0.00 0.00 61 1011.9
20260506102342 50 0 0.0 0.0 0.00 0.00 0.00 62 1011.9
20260506100446 51 0 0.0 0.0 0.00 0.00 0.00 62 1011.7
20260506095607 51 0 0.0 0.0 0.00 0.00 0.00 60 1011.7
20260506094757 51 0 0.0 0.0 0.00 0.00 0.00 62 1011.7
20260506093945 52 0 0.0 0.0 0.00 0.00 0.00 59 1011.7
20260506092108 52 0 0.0 0.0 0.00 0.00 0.00 62 1011.7
20260506091207 52 0 0.0 0.0 0.00 0.00 0.00 56 1011.7
20260506090402 53 0 0.0 0.0 0.00 0.00 0.00 56 1011.7
20260506085542 53 0 0.0 0.0 0.00 0.00 0.00 55 1011.8
20260506084742 53 0 0.0 0.0 0.00 0.00 0.00 55 1011.7
20260506083857 54 0 0.0 0.0 0.00 0.00 0.00 53 1011.6
20260506082947 54 0 0.0 0.0 0.00 0.00 0.00 53 1011.5
20260506080354 55 0 0.0 0.0 0.00 0.00 0.00 53 1011.5
20260506072607 56 0 0.0 0.0 0.00 0.00 0.00 53 1011.5
20260506071652 56 0 0.0 0.0 0.00 0.00 0.00 52 1011.4
20260506070657 32 0 0.0 0.0 0.00 0.00 0.00 100 1011.1
20260506062017 59 0 0.0 0.0 0.00 0.00 0.00 49 1011.0
20260506061032 60 136 0.0 1.0 0.00 0.00 0.00 48 1010.8
20260506050632 64 0 0.0 0.0 0.00 0.00 0.00 48 1010.6
20260506043916 66 119 0.0 2.0 0.00 0.00 0.00 41 1010.5
20260506042147 68 0 0.0 0.0 0.00 0.00 0.00 38 1010.0
20260506041315 69 348 0.0 1.0 0.00 0.00 0.00 39 1010.0
20260506040456 69 0 0.0 0.0 0.00 0.00 0.00 36 1010.0
20260506035527 70 0 0.0 0.0 0.00 0.00 0.00 33 1009.7
20260506033807 73 0 0.0 0.0 0.00 0.00 0.00 30 1009.6
20260506032837 74 0 0.0 0.0 0.00 0.00 0.00 29 1009.5
20260506032027 75 0 0.0 0.0 0.00 0.00 0.00 28 1009.6
20260506025118 32 0 0.0 0.0 0.00 0.00 0.00 100 1009.6
20260506024302 80 0 0.0 0.0 0.00 0.00 0.00 25 1009.5
20260506023442 32 0 0.0 0.0 0.00 0.00 0.00 100 1009.6
20260506021522 90 0 0.0 0.0 0.00 0.00 0.00 18 1009.5
20260506020601 89 345 0.0 1.0 0.00 0.00 0.00 18 1009.7
20260506015632 86 0 0.0 0.0 0.00 0.00 0.00 20 1009.6
20260506014801 83 0 0.0 0.0 0.00 0.00 0.00 20 1009.7
20260506013842 83 0 0.0 0.0 0.00 0.00 0.00 21 1009.6
20260506012852 84 30 0.0 1.0 0.00 0.00 0.00 20 1009.7
20260506012042 87 5 0.0 1.0 0.00 0.00 0.00 18 1009.7
20260506011117 90 329 0.0 1.0 0.00 0.00 0.00 17 1009.7
20260506010303 89 46 0.0 1.0 0.00 0.00 0.00 17 1009.9
20260506005452 88 60 0.0 1.0 0.00 0.00 0.00 17 1009.9
20260506002847 87 322 0.0 1.0 0.00 0.00 0.00 18 1010.2
20260506001937 88 278 2.0 3.0 0.00 0.00 0.00 17 1010.2
20260506001137 89 0 0.0 0.0 0.00 0.00 0.00 17 1010.2
20260506000142 91 326 2.0 3.0 0.00 0.00 0.00 18 1010.4
20260505235247 87 119 0.0 1.0 0.00 0.00 0.00 20 1010.5
20260505234438 85 280 0.0 2.0 0.00 0.00 0.00 20 1010.5
20260505233632 86 311 2.0 4.0 0.00 0.00 0.00 20 1010.7
20260505232634 89 284 2.0 4.0 0.00 0.00 0.00 18 1010.8
20260505231702 99 302 2.0 5.0 0.00 0.00 0.00 14 1010.8
20260505225857 85 327 0.0 2.0 0.00 0.00 0.00 20 1011.1
20260505225016 84 284 2.0 4.0 0.00 0.00 0.00 20 1011.1
20260505224157 84 271 2.0 4.0 0.00 0.00 0.00 19 1011.3
20260505223257 87 265 2.0 4.0 0.00 0.00 0.00 18 1011.4
20260505222315 101 297 2.0 4.0 0.00 0.00 0.00 13 1011.4
20260505220512 96 277 1.0 2.0 0.00 0.00 0.00 15 1011.7
20260505214747 79 294 1.0 3.0 0.00 0.00 0.00 22 1011.9
20260505213941 79 297 2.0 3.0 0.00 0.00 0.00 22 1012.0
20260505212027 77 280 2.0 4.0 0.00 0.00 0.00 22 1012.3
20260505211107 77 277 0.0 3.0 0.00 0.00 0.00 23 1012.5
20260505210251 76 312 2.0 4.0 0.00 0.00 0.00 24 1012.5
20260505205305 75 298 2.0 5.0 0.00 0.00 0.00 24 1012.9
20260505204319 32 284 2.0 4.0 0.00 0.00 0.00 100 1013.0
20260505203432 75 294 0.0 2.0 0.00 0.00 0.00 29 1013.1
20260505200702 73 201 0.0 2.0 0.00 0.00 0.00 29 1013.4
20260505194022 71 299 2.0 6.0 0.00 0.00 0.00 30 1013.8
20260505193023 71 284 1.0 4.0 0.00 0.00 0.00 31 1013.8
20260505192207 71 291 0.0 1.0 0.00 0.00 0.00 30 1014.0
20260505191317 71 305 0.0 3.0 0.00 0.00 0.00 31 1013.9
20260505190402 70 254 0.0 1.0 0.00 0.00 0.00 31 1013.9
20260505185554 70 251 0.0 2.0 0.00 0.00 0.00 33 1014.1
20260505184633 69 285 2.0 4.0 0.00 0.00 0.00 33 1014.4
20260505183822 69 247 0.0 1.0 0.00 0.00 0.00 34 1014.3
20260505182827 68 305 1.0 3.0 0.00 0.00 0.00 33 1014.5
20260505181952 68 315 1.0 2.0 0.00 0.00 0.00 35 1014.5
20260505180115 66 214 0.0 2.0 0.00 0.00 0.00 37 1014.6
20260505174228 66 302 1.0 3.0 0.00 0.00 0.00 38 1014.8
20260505172553 64 288 0.0 2.0 0.00 0.00 0.00 41 1014.9
20260505171742 64 310 1.0 2.0 0.00 0.00 0.00 41 1015.0
20260505165926 63 311 0.0 2.0 0.00 0.00 0.00 43 1015.2
20260505164027 62 303 2.0 4.0 0.00 0.00 0.00 45 1015.2
20260505163152 62 282 0.0 2.0 0.00 0.00 0.00 45 1015.1
20260505162222 61 0 0.0 0.0 0.00 0.00 0.00 46 1015.3
20260505161221 60 300 0.0 1.0 0.00 0.00 0.00 47 1015.2
20260505152543 56 0 0.0 0.0 0.00 0.00 0.00 51 1015.2
20260505150732 55 99 0.0 1.0 0.00 0.00 0.00 55 1015.3
20260505140422 49 0 0.0 0.0 0.00 0.00 0.00 69 1015.0